Change the Weather History Date:

Monday, June 24, 2013

  Actual Average (KFHU) Record (KFHU)
Temperature  
Mean Temperature 78 °F -  
Max Temperature 91 °F 90 °F 103 °F (1990)
Min Temperature 66 °F 70 °F 55 °F (1983)
Cooling Degree Days 14    
Growing Degree Days 28 (Base 50)    
Moisture  
Dew Point 31 °F    
Average Humidity 17    
Maximum Humidity 30    
Minimum Humidity 11    
Precipitation  
Precipitation 0.00 in - - ()
Sea Level Pressure  
Sea Level Pressure 29.77 in    
Wind  
Wind Speed 15 mph (SW)    
Max Wind Speed 25 mph    
Max Gust Speed 37 mph    
Averages and records for this station are not official NWS values.
T = Trace of Precipitation, MM = Missing Value Source: NWS Daily Summary

Daily Weather History Graph

Daily Weather History Graph

Search for Another Location

Airport or City:

Trip Planner

Search our weather history database for the weather conditions in past years. The results will help you decide how hot, cold, wet, or windy it might be!

Date:

Astronomy

Jun. 24, 2013 Rise Set
Actual Time 5:17 AM MST 7:30 PM MST
Civil Twilight 4:49 AM MST 7:58 PM MST
Nautical Twilight 4:15 AM MST 8:32 PM MST
Astronomical Twilight 3:38 AM MST 9:09 PM MST
Moon 8:44 PM MST (6/24) 6:43 AM MST (6/24)
Length of Visible Light 15h 08m
Length of Day
14h 12m
Full, 97% of the Moon is Illuminated
Jun 24
Full
Jun 29
Last Quarter
Jul 8
New
Jul 15
First Quarter
Jul 22
Full

Hourly Weather History & Observations

Time (MST) Temp. Dew Point Humidity Pressure Visibility Wind Dir Wind Speed Gust Speed Precip Events Conditions
12:56 AM 75.0 °F 34.0 °F 22% 29.69 in - SW 15.0 mph - N/A   Clear
1:56 AM 75.2 °F 33.8 °F 22% 29.99 in - SSW 19.6 mph - N/A   Clear
2:56 AM 73.9 °F 30.9 °F 21% 29.70 in - WSW 8.1 mph 17.3 mph N/A   Clear
3:56 AM 66.9 °F 34.0 °F 30% 29.73 in - WNW 10.4 mph - N/A   Clear
4:56 AM 71.1 °F 28.9 °F 21% 29.74 in - SW 9.2 mph - N/A   Clear
5:56 AM 70.0 °F 28.0 °F 21% 29.75 in - SW 6.9 mph - N/A   Clear
6:56 AM 77.0 °F 24.1 °F 14% 29.77 in - SSW 8.1 mph 17.3 mph N/A   Clear
7:56 AM 79.0 °F 28.0 °F 15% 29.78 in - SSW 9.2 mph 23.0 mph N/A   Unknown
8:56 AM 81.0 °F 30.0 °F 16% 29.79 in - South 16.1 mph 24.2 mph N/A   Clear
9:56 AM 84.0 °F 32.0 °F 15% 29.79 in - SW 19.6 mph 25.3 mph N/A   Clear
10:56 AM 86.0 °F 33.1 °F 15% 29.79 in - SSW 23.0 mph 28.8 mph N/A   Clear
11:56 AM 89.1 °F 27.0 °F 11% 29.75 in - SW 24.2 mph 35.7 mph N/A   Clear
12:56 PM 90.0 °F 32.0 °F 13% 29.75 in - SW 25.3 mph 36.8 mph N/A   Clear
1:56 PM 91.0 °F 33.1 °F 13% 29.73 in - SSW 25.3 mph 33.4 mph N/A   Clear
2:56 PM 91.0 °F 30.9 °F 12% 29.72 in - West 23.0 mph 35.7 mph N/A   Clear
3:48 PM 91.4 °F 32.0 °F 12% 30.02 in - SW 25.3 mph 33.4 mph N/A   Clear
3:56 PM 91.0 °F 32.0 °F 12% 29.73 in - SW 18.4 mph 34.5 mph N/A   Clear
4:56 PM 89.1 °F 34.0 °F 14% 29.72 in - WSW 12.7 mph 27.6 mph N/A   Clear
5:56 PM 88.0 °F 28.9 °F 12% 29.72 in - West 19.6 mph 29.9 mph N/A   Clear
6:56 PM 84.9 °F 27.0 °F 12% 29.73 in - WSW 13.8 mph 23.0 mph N/A   Clear
7:56 PM 79.0 °F 27.0 °F 15% 29.76 in - West 8.1 mph - N/A   Clear
8:56 PM 77.0 °F 28.0 °F 17% 29.78 in - SSW 5.8 mph - N/A   Clear
9:56 PM 75.0 °F 32.0 °F 21% 29.81 in - South 6.9 mph - N/A   Clear
10:56 PM 72.0 °F 33.1 °F 24% 29.81 in - SW 9.2 mph - N/A   Clear
11:56 PM 71.6 °F 33.8 °F 25% 29.81 in - West 10.4 mph - N/A   Clear